Location: Lecco
(45.8566°N, 9.3977°E)
Time: 07:29:04
(UTC+02:00)

Altair - Pass Details

Date: 16 August 2020
Orbit: 1501 x 1682 km, 47.2° (Epoch: 25 September)

Event Time Altitude Azimuth Distance (km) Brightness Sun altitude
Rises 08:44:21 0° 292° (WNW) 4,707 9.5 23.2°
Reaches altitude 10° 08:47:35 10° 287° (WNW) 3,701 9.0 23.7°
Maximum altitude 08:56:11 45° 219° (SW) 1,969 8.1 25.2°
Drops below altitude 10° 09:04:40 10° 150° (SSE) 3,644 10.1 26.7°
Sets 09:07:51 0° 145° (SE) 4,627 10.6 27.2°
